owner,sensor,date,latitude,longitude,air_temperature,qcFlag 
DISL,ioos:station:DISL:KATA:1,2015-02-01T00:00:00Z,30.2583,-88.2131,13.51,1111122 
DISL,ioos:station:DISL:KATA:1,2015-02-01T00:30:00Z,30.2583,-88.2131,13.31,1111122 
DISL,ioos:station:DISL:KATA:1,2015-02-01T01:00:00Z,30.2583,-88.2131,13.31,1111122 
DISL,ioos:station:DISL:KATA:1,2015-02-01T01:30:00Z,30.2583,-88.2131,13.72,1111122 
DISL,ioos:station:DISL:KATA:1,2015-02-01T02:00:00Z,30.2583,-88.2131,14.26,1111122 
DISL,ioos:station:DISL:KATA:1,2015-02-01T02:30:00Z,30.2583,-88.2131,14.43,1111122 
DISL,ioos:station:DISL:KATA:1,2015-02-01T03:00:00Z,30.2583,-88.2131,14.46,1111122 
DISL,ioos:station:DISL:KATA:1,2015-02-01T03:30:00Z,30.2583,-88.2131,14.86,1111122 
DISL,ioos:station:DISL:KATA:1,2015-02-01T04:00:00Z,30.2583,-88.2131,14.86,1111122 
DISL,ioos:station:DISL:KATA:1,2015-02-01T04:30:00Z,30.2583,-88.2131,15.03,1111122 
DISL,ioos:station:DISL:KATA:1,2015-02-01T05:00:00Z,30.2583,-88.2131,14.89,1111122 
DISL,ioos:station:DISL:KATA:1,2015-02-01T05:30:00Z,30.2583,-88.2131,15.09,1111122 
DISL,ioos:station:DISL:KATA:1,2015-02-01T06:00:00Z,30.2583,-88.2131,15.33,1111122 
DISL,ioos:station:DISL:KATA:1,2015-02-01T06:30:00Z,30.2583,-88.2131,15.3,1111122 
DISL,ioos:station:DISL:KATA:1,2015-02-01T07:00:00Z,30.2583,-88.2131,15.36,1111122 
DISL,ioos:station:DISL:KATA:1,2015-02-01T07:30:00Z,30.2583,-88.2131,15.26,1111122 
DISL,ioos:station:DISL:KATA:1,2015-02-01T08:00:00Z,30.2583,-88.2131,15.33,1111122 
DISL,ioos:station:DISL:KATA:1,2015-02-01T08:30:00Z,30.2583,-88.2131,15.06,1111122 
DISL,ioos:station:DISL:KATA:1,2015-02-01T09:00:00Z,30.2583,-88.2131,15.4,1111122 
DISL,ioos:station:DISL:KATA:1,2015-02-01T09:30:00Z,30.2583,-88.2131,15.16,1111122 
DISL,ioos:station:DISL:KATA:1,2015-02-01T10:00:00Z,30.2583,-88.2131,15.67,1111122 
DISL,ioos:station:DISL:KATA:1,2015-02-01T10:30:00Z,30.2583,-88.2131,15.77,1111122 
DISL,ioos:station:DISL:KATA:1,2015-02-01T11:00:00Z,30.2583,-88.2131,16.01,1111122 
DISL,ioos:station:DISL:KATA:1,2015-02-01T11:30:00Z,30.2583,-88.2131,15.97,1111122 
DISL,ioos:station:DISL:KATA:1,2015-02-01T12:00:00Z,30.2583,-88.2131,15.87,1111122 
DISL,ioos:station:DISL:KATA:1,2015-02-01T12:30:00Z,30.2583,-88.2131,15.84,1111122 
DISL,ioos:station:DISL:KATA:1,2015-02-01T13:00:00Z,30.2583,-88.2131,15.84,1111122 
DISL,ioos:station:DISL:KATA:1,2015-02-01T13:30:00Z,30.2583,-88.2131,16.11,1111122 
DISL,ioos:station:DISL:KATA:1,2015-02-01T14:00:00Z,30.2583,-88.2131,16.18,1111122 
DISL,ioos:station:DISL:KATA:1,2015-02-01T14:30:00Z,30.2583,-88.2131,16.27,1111122 
DISL,ioos:station:DISL:KATA:1,2015-02-01T15:00:00Z,30.2583,-88.2131,16.35,1111122 
DISL,ioos:station:DISL:KATA:1,2015-02-01T15:30:00Z,30.2583,-88.2131,16.45,1111122 
DISL,ioos:station:DISL:KATA:1,2015-02-01T16:00:00Z,30.2583,-88.2131,16.04,1111122 
DISL,ioos:station:DISL:KATA:1,2015-02-01T16:30:00Z,30.2583,-88.2131,16.38,1111122 
DISL,ioos:station:DISL:KATA:1,2015-02-01T17:00:00Z,30.2583,-88.2131,16.35,1111122 
DISL,ioos:station:DISL:KATA:1,2015-02-01T17:30:00Z,30.2583,-88.2131,16.55,1111122 
DISL,ioos:station:DISL:KATA:1,2015-02-01T18:00:00Z,30.2583,-88.2131,16.59,1111122 
DISL,ioos:station:DISL:KATA:1,2015-02-01T18:30:00Z,30.2583,-88.2131,16.52,1111122 
DISL,ioos:station:DISL:KATA:1,2015-02-01T19:00:00Z,30.2583,-88.2131,16.65,1111122 
DISL,ioos:station:DISL:KATA:1,2015-02-01T19:30:00Z,30.2583,-88.2131,16.55,1111122 
DISL,ioos:station:DISL:KATA:1,2015-02-01T20:00:00Z,30.2583,-88.2131,16.62,1111122 
DISL,ioos:station:DISL:KATA:1,2015-02-01T20:30:00Z,30.2583,-88.2131,16.28,1111122 
DISL,ioos:station:DISL:KATA:1,2015-02-01T21:00:00Z,30.2583,-88.2131,16.82,1111122 
DISL,ioos:station:DISL:KATA:1,2015-02-01T21:30:00Z,30.2583,-88.2131,16.61,1111122 
DISL,ioos:station:DISL:KATA:1,2015-02-01T22:00:00Z,30.2583,-88.2131,16.51,1111122 
DISL,ioos:station:DISL:KATA:1,2015-02-01T22:30:00Z,30.2583,-88.2131,16.44,1111122 
DISL,ioos:station:DISL:KATA:1,2015-02-01T23:00:00Z,30.2583,-88.2131,16.51,1111122 
DISL,ioos:station:DISL:KATA:1,2015-02-01T23:30:00Z,30.2583,-88.2131,16.31,1111122 
DISL,ioos:station:DISL:KATA:1,2015-02-02T00:00:00Z,30.2583,-88.2131,16.45,1111122 
DISL,ioos:station:DISL:KATA:1,2015-02-02T00:30:00Z,30.2583,-88.2131,16.45,1111122 
DISL,ioos:station:DISL:KATA:1,2015-02-02T01:00:00Z,30.2583,-88.2131,16.21,1111122 
DISL,ioos:station:DISL:KATA:1,2015-02-02T01:30:00Z,30.2583,-88.2131,16.25,1111122 
DISL,ioos:station:DISL:KATA:1,2015-02-02T02:00:00Z,30.2583,-88.2131,16.25,1111122 
DISL,ioos:station:DISL:KATA:1,2015-02-02T02:30:00Z,30.2583,-88.2131,16.45,1111122 
DISL,ioos:station:DISL:KATA:1,2015-02-02T03:00:00Z,30.2583,-88.2131,16.38,1111122 
DISL,ioos:station:DISL:KATA:1,2015-02-02T03:30:00Z,30.2583,-88.2131,16.59,1111122 
DISL,ioos:station:DISL:KATA:1,2015-02-02T04:00:00Z,30.2583,-88.2131,16.96,1111122 
DISL,ioos:station:DISL:KATA:1,2015-02-02T04:30:00Z,30.2583,-88.2131,16.79,1111122 
DISL,ioos:station:DISL:KATA:1,2015-02-02T05:00:00Z,30.2583,-88.2131,16.79,1111122 
DISL,ioos:station:DISL:KATA:1,2015-02-02T05:30:00Z,30.2583,-88.2131,16.75,1111122 
DISL,ioos:station:DISL:KATA:1,2015-02-02T06:00:00Z,30.2583,-88.2131,16.86,1111122 
DISL,ioos:station:DISL:KATA:1,2015-02-02T06:30:00Z,30.2583,-88.2131,15.53,1111122 
DISL,ioos:station:DISL:KATA:1,2015-02-02T07:00:00Z,30.2583,-88.2131,15.02,1111122 
DISL,ioos:station:DISL:KATA:1,2015-02-02T07:30:00Z,30.2583,-88.2131,14.58,1111122 
DISL,ioos:station:DISL:KATA:1,2015-02-02T08:00:00Z,30.2583,-88.2131,14.28,1111122 
DISL,ioos:station:DISL:KATA:1,2015-02-02T08:30:00Z,30.2583,-88.2131,14.11,1111122 
DISL,ioos:station:DISL:KATA:1,2015-02-02T09:00:00Z,30.2583,-88.2131,14.01,1111122 
DISL,ioos:station:DISL:KATA:1,2015-02-02T09:30:00Z,30.2583,-88.2131,13.5,1111122 
DISL,ioos:station:DISL:KATA:1,2015-02-02T10:00:00Z,30.2583,-88.2131,13.2,1111122 
DISL,ioos:station:DISL:KATA:1,2015-02-02T10:30:00Z,30.2583,-88.2131,12.12,1111122 
DISL,ioos:station:DISL:KATA:1,2015-02-02T11:00:00Z,30.2583,-88.2131,11.58,1111122 
DISL,ioos:station:DISL:KATA:1,2015-02-02T11:30:00Z,30.2583,-88.2131,10.8,1111122 
DISL,ioos:station:DISL:KATA:1,2015-02-02T12:00:00Z,30.2583,-88.2131,9.95,1111122 
DISL,ioos:station:DISL:KATA:1,2015-02-02T12:30:00Z,30.2583,-88.2131,9.08,1111122 
DISL,ioos:station:DISL:KATA:1,2015-02-02T13:00:00Z,30.2583,-88.2131,7.724,1111122 
DISL,ioos:station:DISL:KATA:1,2015-02-02T13:30:00Z,30.2583,-88.2131,7.011,1111122 
DISL,ioos:station:DISL:KATA:1,2015-02-02T14:00:00Z,30.2583,-88.2131,6.847,1111122 
DISL,ioos:station:DISL:KATA:1,2015-02-02T14:30:00Z,30.2583,-88.2131,6.848,1111122 
DISL,ioos:station:DISL:KATA:1,2015-02-02T15:00:00Z,30.2583,-88.2131,6.978,1111122 
DISL,ioos:station:DISL:KATA:1,2015-02-02T15:30:00Z,30.2583,-88.2131,6.943,1111122 
DISL,ioos:station:DISL:KATA:1,2015-02-02T16:00:00Z,30.2583,-88.2131,6.671,1111122 
DISL,ioos:station:DISL:KATA:1,2015-02-02T16:30:00Z,30.2583,-88.2131,6.875,1111122 
DISL,ioos:station:DISL:KATA:1,2015-02-02T17:00:00Z,30.2583,-88.2131,7.147,1111122 
DISL,ioos:station:DISL:KATA:1,2015-02-02T17:30:00Z,30.2583,-88.2131,7.147,1111122 
DISL,ioos:station:DISL:KATA:1,2015-02-02T18:00:00Z,30.2583,-88.2131,7.181,1111122 
DISL,ioos:station:DISL:KATA:1,2015-02-02T18:30:00Z,30.2583,-88.2131,7.588,1111122 
DISL,ioos:station:DISL:KATA:1,2015-02-02T19:00:00Z,30.2583,-88.2131,8.1,1111122 
DISL,ioos:station:DISL:KATA:1,2015-02-02T19:30:00Z,30.2583,-88.2131,8.51,1111122 
DISL,ioos:station:DISL:KATA:1,2015-02-02T20:00:00Z,30.2583,-88.2131,8.64,1111122 
DISL,ioos:station:DISL:KATA:1,2015-02-02T20:30:00Z,30.2583,-88.2131,8.98,1111122 
DISL,ioos:station:DISL:KATA:1,2015-02-02T21:00:00Z,30.2583,-88.2131,9.63,1111122 
DISL,ioos:station:DISL:KATA:1,2015-02-02T21:30:00Z,30.2583,-88.2131,9.97,1111122 
DISL,ioos:station:DISL:KATA:1,2015-02-02T22:00:00Z,30.2583,-88.2131,10.23,1111122 
DISL,ioos:station:DISL:KATA:1,2015-02-02T22:30:00Z,30.2583,-88.2131,10.6,1111122 
DISL,ioos:station:DISL:KATA:1,2015-02-02T23:00:00Z,30.2583,-88.2131,10.53,1111122 
DISL,ioos:station:DISL:KATA:1,2015-02-02T23:30:00Z,30.2583,-88.2131,10.09,1111122 
DISL,ioos:station:DISL:KATA:1,2015-02-03T00:00:00Z,30.2583,-88.2131,9.73,1111122 
DISL,ioos:station:DISL:KATA:1,2015-02-03T00:30:00Z,30.2583,-88.2131,9.29,1111122 
DISL,ioos:station:DISL:KATA:1,2015-02-03T01:00:00Z,30.2583,-88.2131,8.47,1111122 
DISL,ioos:station:DISL:KATA:1,2015-02-03T01:30:00Z,30.2583,-88.2131,7.932,1111122 
DISL,ioos:station:DISL:KATA:1,2015-02-03T02:00:00Z,30.2583,-88.2131,7.358,1111122 
DISL,ioos:station:DISL:KATA:1,2015-02-03T02:30:00Z,30.2583,-88.2131,6.954,1111122 
DISL,ioos:station:DISL:KATA:1,2015-02-03T03:00:00Z,30.2583,-88.2131,6.517,1111122 
DISL,ioos:station:DISL:KATA:1,2015-02-03T03:30:00Z,30.2583,-88.2131,6.585,1111122 
DISL,ioos:station:DISL:KATA:1,2015-02-03T04:00:00Z,30.2583,-88.2131,6.041,1111122 
DISL,ioos:station:DISL:KATA:1,2015-02-03T04:30:00Z,30.2583,-88.2131,5.668,1111122 
DISL,ioos:station:DISL:KATA:1,2015-02-03T05:00:00Z,30.2583,-88.2131,5.261,1111122 
DISL,ioos:station:DISL:KATA:1,2015-02-03T05:30:00Z,30.2583,-88.2131,4.554,1111122 
DISL,ioos:station:DISL:KATA:1,2015-02-03T06:00:00Z,30.2583,-88.2131,4.317,1111122 
DISL,ioos:station:DISL:KATA:1,2015-02-03T06:30:00Z,30.2583,-88.2131,4.153,1111122 
DISL,ioos:station:DISL:KATA:1,2015-02-03T07:00:00Z,30.2583,-88.2131,3.916,1111122 
DISL,ioos:station:DISL:KATA:1,2015-02-03T07:30:00Z,30.2583,-88.2131,3.44,1111122 
DISL,ioos:station:DISL:KATA:1,2015-02-03T08:00:00Z,30.2583,-88.2131,3.066,1111122 
DISL,ioos:station:DISL:KATA:1,2015-02-03T08:30:00Z,30.2583,-88.2131,3.202,1111122 
DISL,ioos:station:DISL:KATA:1,2015-02-03T09:00:00Z,30.2583,-88.2131,2.998,1111122 
DISL,ioos:station:DISL:KATA:1,2015-02-03T09:30:00Z,30.2583,-88.2131,3.032,1111122 
DISL,ioos:station:DISL:KATA:1,2015-02-03T10:00:00Z,30.2583,-88.2131,2.93,1111122 
DISL,ioos:station:DISL:KATA:1,2015-02-03T10:30:00Z,30.2583,-88.2131,3.236,1111122 
DISL,ioos:station:DISL:KATA:1,2015-02-03T11:00:00Z,30.2583,-88.2131,3.814,1111122 
DISL,ioos:station:DISL:KATA:1,2015-02-03T11:30:00Z,30.2583,-88.2131,3.814,1111122 
DISL,ioos:station:DISL:KATA:1,2015-02-03T12:00:00Z,30.2583,-88.2131,3.882,1111122 
DISL,ioos:station:DISL:KATA:1,2015-02-03T12:30:00Z,30.2583,-88.2131,3.916,1111122 
DISL,ioos:station:DISL:KATA:1,2015-02-03T13:00:00Z,30.2583,-88.2131,4.188,1111122 
DISL,ioos:station:DISL:KATA:1,2015-02-03T13:30:00Z,30.2583,-88.2131,4.018,1111122 
DISL,ioos:station:DISL:KATA:1,2015-02-03T14:00:00Z,30.2583,-88.2131,3.95,1111122 
DISL,ioos:station:DISL:KATA:1,2015-02-03T14:30:00Z,30.2583,-88.2131,4.086,1111122 
DISL,ioos:station:DISL:KATA:1,2015-02-03T15:00:00Z,30.2583,-88.2131,3.984,1111122 
DISL,ioos:station:DISL:KATA:1,2015-02-03T15:30:00Z,30.2583,-88.2131,4.153,1111122 
DISL,ioos:station:DISL:KATA:1,2015-02-03T16:00:00Z,30.2583,-88.2131,4.152,1111122 
DISL,ioos:station:DISL:KATA:1,2015-02-03T16:30:00Z,30.2583,-88.2131,4.487,1111122 
DISL,ioos:station:DISL:KATA:1,2015-02-03T17:00:00Z,30.2583,-88.2131,4.996,1111122 
DISL,ioos:station:DISL:KATA:1,2015-02-03T17:30:00Z,30.2583,-88.2131,5.229,1111122 
DISL,ioos:station:DISL:KATA:1,2015-02-03T18:00:00Z,30.2583,-88.2131,5.056,1111122 
DISL,ioos:station:DISL:KATA:1,2015-02-03T18:30:00Z,30.2583,-88.2131,5.396,1111122 
DISL,ioos:station:DISL:KATA:1,2015-02-03T19:00:00Z,30.2583,-88.2131,5.872,1111122 
DISL,ioos:station:DISL:KATA:1,2015-02-03T19:30:00Z,30.2583,-88.2131,6.483,1111122 
DISL,ioos:station:DISL:KATA:1,2015-02-03T20:00:00Z,30.2583,-88.2131,7.53,1111122 
DISL,ioos:station:DISL:KATA:1,2015-02-03T20:30:00Z,30.2583,-88.2131,8.44,1111122 
DISL,ioos:station:DISL:KATA:1,2015-02-03T21:00:00Z,30.2583,-88.2131,8.17,1111122 
DISL,ioos:station:DISL:KATA:1,2015-02-03T21:30:00Z,30.2583,-88.2131,8.13,1111122 
DISL,ioos:station:DISL:KATA:1,2015-02-03T22:00:00Z,30.2583,-88.2131,8.4,1111122 
DISL,ioos:station:DISL:KATA:1,2015-02-03T22:30:00Z,30.2583,-88.2131,8.54,1111122 
DISL,ioos:station:DISL:KATA:1,2015-02-03T23:00:00Z,30.2583,-88.2131,8.71,1111122 
DISL,ioos:station:DISL:KATA:1,2015-02-03T23:30:00Z,30.2583,-88.2131,8.81,1111122 
DISL,ioos:station:DISL:KATA:1,2015-02-04T00:00:00Z,30.2583,-88.2131,8.95,1111122 
DISL,ioos:station:DISL:KATA:1,2015-02-04T00:30:00Z,30.2583,-88.2131,9.08,1111122 
DISL,ioos:station:DISL:KATA:1,2015-02-04T01:00:00Z,30.2583,-88.2131,9.22,1111122 
DISL,ioos:station:DISL:KATA:1,2015-02-04T01:30:00Z,30.2583,-88.2131,9.25,1111122 
DISL,ioos:station:DISL:KATA:1,2015-02-04T02:00:00Z,30.2583,-88.2131,9.22,1111122 
DISL,ioos:station:DISL:KATA:1,2015-02-04T02:30:00Z,30.2583,-88.2131,9.18,1111122 
DISL,ioos:station:DISL:KATA:1,2015-02-04T03:00:00Z,30.2583,-88.2131,9.12,1111122 
DISL,ioos:station:DISL:KATA:1,2015-02-04T03:30:00Z,30.2583,-88.2131,8.98,1111122 
DISL,ioos:station:DISL:KATA:1,2015-02-04T04:00:00Z,30.2583,-88.2131,8.85,1111122 
DISL,ioos:station:DISL:KATA:1,2015-02-04T04:30:00Z,30.2583,-88.2131,8.85,1111122 
DISL,ioos:station:DISL:KATA:1,2015-02-04T05:00:00Z,30.2583,-88.2131,9.01,1111122 
DISL,ioos:station:DISL:KATA:1,2015-02-04T05:30:00Z,30.2583,-88.2131,9.59,1111122 
DISL,ioos:station:DISL:KATA:1,2015-02-04T06:00:00Z,30.2583,-88.2131,9.59,1111122 
DISL,ioos:station:DISL:KATA:1,2015-02-04T06:30:00Z,30.2583,-88.2131,9.52,1111122 
DISL,ioos:station:DISL:KATA:1,2015-02-04T07:00:00Z,30.2583,-88.2131,9.25,1111122 
DISL,ioos:station:DISL:KATA:1,2015-02-04T07:30:00Z,30.2583,-88.2131,9.39,1111122 
DISL,ioos:station:DISL:KATA:1,2015-02-04T08:00:00Z,30.2583,-88.2131,9.76,1111122 
DISL,ioos:station:DISL:KATA:1,2015-02-04T08:30:00Z,30.2583,-88.2131,9.86,1111122 
DISL,ioos:station:DISL:KATA:1,2015-02-04T09:00:00Z,30.2583,-88.2131,9.86,1111122 
DISL,ioos:station:DISL:KATA:1,2015-02-04T09:30:00Z,30.2583,-88.2131,9.42,1111122 
DISL,ioos:station:DISL:KATA:1,2015-02-04T10:00:00Z,30.2583,-88.2131,8.68,1111122 
DISL,ioos:station:DISL:KATA:1,2015-02-04T10:30:00Z,30.2583,-88.2131,8.71,1111122 
DISL,ioos:station:DISL:KATA:1,2015-02-04T11:00:00Z,30.2583,-88.2131,8.95,1111122 
DISL,ioos:station:DISL:KATA:1,2015-02-04T11:30:00Z,30.2583,-88.2131,8.78,1111122 
DISL,ioos:station:DISL:KATA:1,2015-02-04T12:00:00Z,30.2583,-88.2131,8.91,1111122 
DISL,ioos:station:DISL:KATA:1,2015-02-04T12:30:00Z,30.2583,-88.2131,8.91,1111122 
DISL,ioos:station:DISL:KATA:1,2015-02-04T13:00:00Z,30.2583,-88.2131,9.15,1111122 
DISL,ioos:station:DISL:KATA:1,2015-02-04T13:30:00Z,30.2583,-88.2131,9.15,1111122 
DISL,ioos:station:DISL:KATA:1,2015-02-04T14:00:00Z,30.2583,-88.2131,9.18,1111122 
DISL,ioos:station:DISL:KATA:1,2015-02-04T14:30:00Z,30.2583,-88.2131,9.25,1111122 
DISL,ioos:station:DISL:KATA:1,2015-02-04T15:00:00Z,30.2583,-88.2131,8.88,1111122 
DISL,ioos:station:DISL:KATA:1,2015-02-04T15:30:00Z,30.2583,-88.2131,8.81,1111122 
DISL,ioos:station:DISL:KATA:1,2015-02-04T16:00:00Z,30.2583,-88.2131,9.08,1111122 
DISL,ioos:station:DISL:KATA:1,2015-02-04T16:30:00Z,30.2583,-88.2131,9.32,1111122 
DISL,ioos:station:DISL:KATA:1,2015-02-04T17:00:00Z,30.2583,-88.2131,9.59,1111122 
DISL,ioos:station:DISL:KATA:1,2015-02-04T17:30:00Z,30.2583,-88.2131,9.49,1111122 
DISL,ioos:station:DISL:KATA:1,2015-02-04T18:00:00Z,30.2583,-88.2131,9.29,1111122 
DISL,ioos:station:DISL:KATA:1,2015-02-04T18:30:00Z,30.2583,-88.2131,9.18,1111122 
DISL,ioos:station:DISL:KATA:1,2015-02-04T19:00:00Z,30.2583,-88.2131,9.15,1111122 
DISL,ioos:station:DISL:KATA:1,2015-02-04T19:30:00Z,30.2583,-88.2131,8.88,1111122 
DISL,ioos:station:DISL:KATA:1,2015-02-04T20:00:00Z,30.2583,-88.2131,8.23,1111122 
DISL,ioos:station:DISL:KATA:1,2015-02-04T20:30:00Z,30.2583,-88.2131,8.37,1111122 
DISL,ioos:station:DISL:KATA:1,2015-02-04T21:00:00Z,30.2583,-88.2131,8.38,1111122 
DISL,ioos:station:DISL:KATA:1,2015-02-04T21:30:00Z,30.2583,-88.2131,8.61,1111122 
DISL,ioos:station:DISL:KATA:1,2015-02-04T22:00:00Z,30.2583,-88.2131,8.92,1111122 
DISL,ioos:station:DISL:KATA:1,2015-02-04T22:30:00Z,30.2583,-88.2131,9.39,1111122 
DISL,ioos:station:DISL:KATA:1,2015-02-04T23:00:00Z,30.2583,-88.2131,9.59,1111122 
DISL,ioos:station:DISL:KATA:1,2015-02-04T23:30:00Z,30.2583,-88.2131,9.08,1111122 
DISL,ioos:station:DISL:KATA:1,2015-02-05T00:00:00Z,30.2583,-88.2131,8.68,1111122 
DISL,ioos:station:DISL:KATA:1,2015-02-05T00:30:00Z,30.2583,-88.2131,9.01,1111122 
DISL,ioos:station:DISL:KATA:1,2015-02-05T01:00:00Z,30.2583,-88.2131,9.05,1111122 
DISL,ioos:station:DISL:KATA:1,2015-02-05T01:30:00Z,30.2583,-88.2131,9.12,1111122 
DISL,ioos:station:DISL:KATA:1,2015-02-05T02:00:00Z,30.2583,-88.2131,9.32,1111122 
DISL,ioos:station:DISL:KATA:1,2015-02-05T02:30:00Z,30.2583,-88.2131,9.18,1111122 
DISL,ioos:station:DISL:KATA:1,2015-02-05T03:00:00Z,30.2583,-88.2131,8.88,1111122 
DISL,ioos:station:DISL:KATA:1,2015-02-05T03:30:00Z,30.2583,-88.2131,8.85,1111122 
DISL,ioos:station:DISL:KATA:1,2015-02-05T04:00:00Z,30.2583,-88.2131,8.51,1111122 
DISL,ioos:station:DISL:KATA:1,2015-02-05T04:30:00Z,30.2583,-88.2131,8.61,1111122 
DISL,ioos:station:DISL:KATA:1,2015-02-05T05:00:00Z,30.2583,-88.2131,8.64,1111122 
DISL,ioos:station:DISL:KATA:1,2015-02-05T05:30:00Z,30.2583,-88.2131,8.64,1111122 
DISL,ioos:station:DISL:KATA:1,2015-02-05T06:00:00Z,30.2583,-88.2131,8.61,1111122 
DISL,ioos:station:DISL:KATA:1,2015-02-05T06:30:00Z,30.2583,-88.2131,8.23,1111122 
DISL,ioos:station:DISL:KATA:1,2015-02-05T07:00:00Z,30.2583,-88.2131,8.03,1111122 
DISL,ioos:station:DISL:KATA:1,2015-02-05T07:30:00Z,30.2583,-88.2131,8.07,1111122 
DISL,ioos:station:DISL:KATA:1,2015-02-05T08:00:00Z,30.2583,-88.2131,8.44,1111122 
DISL,ioos:station:DISL:KATA:1,2015-02-05T08:30:00Z,30.2583,-88.2131,8.04,1111122 
DISL,ioos:station:DISL:KATA:1,2015-02-05T09:00:00Z,30.2583,-88.2131,8.07,1111122 
DISL,ioos:station:DISL:KATA:1,2015-02-05T09:30:00Z,30.2583,-88.2131,8.07,1111122 
DISL,ioos:station:DISL:KATA:1,2015-02-05T10:00:00Z,30.2583,-88.2131,7.901,1111122 
DISL,ioos:station:DISL:KATA:1,2015-02-05T10:30:00Z,30.2583,-88.2131,7.731,1111122 
DISL,ioos:station:DISL:KATA:1,2015-02-05T11:00:00Z,30.2583,-88.2131,7.697,1111122 
DISL,ioos:station:DISL:KATA:1,2015-02-05T11:30:00Z,30.2583,-88.2131,7.764,1111122 
DISL,ioos:station:DISL:KATA:1,2015-02-05T12:00:00Z,30.2583,-88.2131,7.731,1111122 
DISL,ioos:station:DISL:KATA:1,2015-02-05T12:30:00Z,30.2583,-88.2131,7.867,1111122 
DISL,ioos:station:DISL:KATA:1,2015-02-05T13:00:00Z,30.2583,-88.2131,8.04,1111122 
DISL,ioos:station:DISL:KATA:1,2015-02-05T13:30:00Z,30.2583,-88.2131,7.833,1111122 
DISL,ioos:station:DISL:KATA:1,2015-02-05T14:00:00Z,30.2583,-88.2131,8.14,1111122 
DISL,ioos:station:DISL:KATA:1,2015-02-05T14:30:00Z,30.2583,-88.2131,8.47,1111122 
DISL,ioos:station:DISL:KATA:1,2015-02-05T15:00:00Z,30.2583,-88.2131,8.85,1111122 
DISL,ioos:station:DISL:KATA:1,2015-02-05T15:30:00Z,30.2583,-88.2131,9.01,1111122 
DISL,ioos:station:DISL:KATA:1,2015-02-05T16:00:00Z,30.2583,-88.2131,10.13,1111122 
DISL,ioos:station:DISL:KATA:1,2015-02-05T16:30:00Z,30.2583,-88.2131,10.49,1111122 
DISL,ioos:station:DISL:KATA:1,2015-02-05T17:00:00Z,30.2583,-88.2131,11.07,1111122 
DISL,ioos:station:DISL:KATA:1,2015-02-05T17:30:00Z,30.2583,-88.2131,11.24,1111122 
DISL,ioos:station:DISL:KATA:1,2015-02-05T18:00:00Z,30.2583,-88.2131,11.4,1111122 
DISL,ioos:station:DISL:KATA:1,2015-02-05T18:30:00Z,30.2583,-88.2131,11.77,1111122 
DISL,ioos:station:DISL:KATA:1,2015-02-05T19:00:00Z,30.2583,-88.2131,12.0,1111122 
DISL,ioos:station:DISL:KATA:1,2015-02-05T19:30:00Z,30.2583,-88.2131,12.01,1111122 
DISL,ioos:station:DISL:KATA:1,2015-02-05T20:00:00Z,30.2583,-88.2131,12.52,1111122 
DISL,ioos:station:DISL:KATA:1,2015-02-05T20:30:00Z,30.2583,-88.2131,12.79,1111122 
DISL,ioos:station:DISL:KATA:1,2015-02-05T21:00:00Z,30.2583,-88.2131,13.36,1111122 
DISL,ioos:station:DISL:KATA:1,2015-02-05T21:30:00Z,30.2583,-88.2131,13.36,1111122 
DISL,ioos:station:DISL:KATA:1,2015-02-05T22:00:00Z,30.2583,-88.2131,13.36,1111122 
DISL,ioos:station:DISL:KATA:1,2015-02-05T22:30:00Z,30.2583,-88.2131,13.33,1111122 
DISL,ioos:station:DISL:KATA:1,2015-02-05T23:00:00Z,30.2583,-88.2131,13.23,1111122 
DISL,ioos:station:DISL:KATA:1,2015-02-05T23:30:00Z,30.2583,-88.2131,13.0,1111122 
DISL,ioos:station:DISL:KATA:1,2015-02-06T00:00:00Z,30.2583,-88.2131,12.7,1111122 
DISL,ioos:station:DISL:KATA:1,2015-02-06T00:30:00Z,30.2583,-88.2131,12.39,1111122 
DISL,ioos:station:DISL:KATA:1,2015-02-06T01:00:00Z,30.2583,-88.2131,11.88,1111122 
DISL,ioos:station:DISL:KATA:1,2015-02-06T01:30:00Z,30.2583,-88.2131,11.51,1111122 
DISL,ioos:station:DISL:KATA:1,2015-02-06T02:00:00Z,30.2583,-88.2131,11.07,1111122 
DISL,ioos:station:DISL:KATA:1,2015-02-06T02:30:00Z,30.2583,-88.2131,10.47,1111122 
DISL,ioos:station:DISL:KATA:1,2015-02-06T03:00:00Z,30.2583,-88.2131,9.9,1111122 
DISL,ioos:station:DISL:KATA:1,2015-02-06T03:30:00Z,30.2583,-88.2131,9.42,1111122 
DISL,ioos:station:DISL:KATA:1,2015-02-06T04:00:00Z,30.2583,-88.2131,8.95,1111122 
DISL,ioos:station:DISL:KATA:1,2015-02-06T04:30:00Z,30.2583,-88.2131,8.34,1111122 
DISL,ioos:station:DISL:KATA:1,2015-02-06T05:00:00Z,30.2583,-88.2131,8.1,1111122 
DISL,ioos:station:DISL:KATA:1,2015-02-06T05:30:00Z,30.2583,-88.2131,7.392,1111122 
DISL,ioos:station:DISL:KATA:1,2015-02-06T06:00:00Z,30.2583,-88.2131,6.852,1111122 
DISL,ioos:station:DISL:KATA:1,2015-02-06T06:30:00Z,30.2583,-88.2131,6.415,1111122 
DISL,ioos:station:DISL:KATA:1,2015-02-06T07:00:00Z,30.2583,-88.2131,6.109,1111122 
DISL,ioos:station:DISL:KATA:1,2015-02-06T07:30:00Z,30.2583,-88.2131,5.77,1111122 
DISL,ioos:station:DISL:KATA:1,2015-02-06T08:00:00Z,30.2583,-88.2131,5.501,1111122 
DISL,ioos:station:DISL:KATA:1,2015-02-06T08:30:00Z,30.2583,-88.2131,5.097,1111122 
DISL,ioos:station:DISL:KATA:1,2015-02-06T09:00:00Z,30.2583,-88.2131,4.86,1111122 
DISL,ioos:station:DISL:KATA:1,2015-02-06T09:30:00Z,30.2583,-88.2131,4.69,1111122 
DISL,ioos:station:DISL:KATA:1,2015-02-06T10:00:00Z,30.2583,-88.2131,4.288,1111122 
DISL,ioos:station:DISL:KATA:1,2015-02-06T10:30:00Z,30.2583,-88.2131,3.95,1111122 
DISL,ioos:station:DISL:KATA:1,2015-02-06T11:00:00Z,30.2583,-88.2131,3.78,1111122 
DISL,ioos:station:DISL:KATA:1,2015-02-06T11:30:00Z,30.2583,-88.2131,3.44,1111122 
DISL,ioos:station:DISL:KATA:1,2015-02-06T12:00:00Z,30.2583,-88.2131,3.27,1111122 
DISL,ioos:station:DISL:KATA:1,2015-02-06T12:30:00Z,30.2583,-88.2131,3.236,1111122 
DISL,ioos:station:DISL:KATA:1,2015-02-06T13:00:00Z,30.2583,-88.2131,3.338,1111122 
DISL,ioos:station:DISL:KATA:1,2015-02-06T13:30:00Z,30.2583,-88.2131,3.882,1111122 
DISL,ioos:station:DISL:KATA:1,2015-02-06T14:00:00Z,30.2583,-88.2131,4.693,1111122 
DISL,ioos:station:DISL:KATA:1,2015-02-06T14:30:00Z,30.2583,-88.2131,6.281,1111122 
DISL,ioos:station:DISL:KATA:1,2015-02-06T15:00:00Z,30.2583,-88.2131,6.619,1111122 
DISL,ioos:station:DISL:KATA:1,2015-02-06T15:30:00Z,30.2583,-88.2131,6.815,1111122 
DISL,ioos:station:DISL:KATA:1,2015-02-06T16:00:00Z,30.2583,-88.2131,6.778,1111122 
DISL,ioos:station:DISL:KATA:1,2015-02-06T16:30:00Z,30.2583,-88.2131,7.181,1111122 
DISL,ioos:station:DISL:KATA:1,2015-02-06T17:00:00Z,30.2583,-88.2131,7.52,1111122 
DISL,ioos:station:DISL:KATA:1,2015-02-06T17:30:00Z,30.2583,-88.2131,8.47,1111122 
DISL,ioos:station:DISL:KATA:1,2015-02-06T18:00:00Z,30.2583,-88.2131,7.441,1111122 
DISL,ioos:station:DISL:KATA:1,2015-02-06T18:30:00Z,30.2583,-88.2131,7.709,1111122 
DISL,ioos:station:DISL:KATA:1,2015-02-06T19:00:00Z,30.2583,-88.2131,7.81,1111122 
DISL,ioos:station:DISL:KATA:1,2015-02-06T19:30:00Z,30.2583,-88.2131,7.98,1111122 
DISL,ioos:station:DISL:KATA:1,2015-02-06T20:00:00Z,30.2583,-88.2131,8.12,1111122 
DISL,ioos:station:DISL:KATA:1,2015-02-06T20:30:00Z,30.2583,-88.2131,8.39,1111122 
DISL,ioos:station:DISL:KATA:1,2015-02-06T21:00:00Z,30.2583,-88.2131,8.9,1111122 
DISL,ioos:station:DISL:KATA:1,2015-02-06T21:30:00Z,30.2583,-88.2131,9.37,1111122 
DISL,ioos:station:DISL:KATA:1,2015-02-06T22:00:00Z,30.2583,-88.2131,9.88,1111122 
DISL,ioos:station:DISL:KATA:1,2015-02-06T22:30:00Z,30.2583,-88.2131,10.36,1111122 
DISL,ioos:station:DISL:KATA:1,2015-02-06T23:00:00Z,30.2583,-88.2131,10.87,1111122 
DISL,ioos:station:DISL:KATA:1,2015-02-06T23:30:00Z,30.2583,-88.2131,10.49,1111122 
DISL,ioos:station:DISL:KATA:1,2015-02-07T00:00:00Z,30.2583,-88.2131,10.46,1111122 
DISL,ioos:station:DISL:KATA:1,2015-02-07T00:30:00Z,30.2583,-88.2131,10.54,1111122 